SVJC/LSP METAR and TAF weather

Enter ICAO airport designator
Station Type Date Time Source
SVJC METAR 2018/06/23 10:00 UTC NOAA

SVJC 231000Z NI


Station Type Date Time Source
SVJC Decoded METAR 2018/06/23 10:00 UTC NOAA

Paraguana / Josefa, Venezuela (SVJC) 11-47N 070-09W
Jun 23, 2018 - 06:00 AM EDT / 2018.06.23 1000 UTC
ob: SVJC 231000Z NI
cycle: 10

Station Type Date Time Source
SVJC TAF 2019/10/14 06:03 UTC NOAA

TAF TAF SVJC 140600Z 1406/1506 08004KT 9999 SCT013 TX33/19Z TN23/09Z
TEMPO 1406/1410 VRB04KT 8000 DZ BKN013

Example: see airport list